Probability
0 0 0 1 0 0 0 0 0 2 6 10 13 17 18 17 15 14 13 12 12 13 13 13 13 13 13 12 10 10 10 10 10 8 5 3 3 3 3 2 2 1 0 0
0 0 0 1 0 0 0 0 1 2 6 10 12 15 17 18 16 14 12 11 12 13 14 13 13 13 12 11 10 10 10 10 10 8 5 3 3 2 2 1 1 0 0 0
0 0 0 0 0 0 0 1 2 4 7 10 11 12 15 18 17 14 10 8 10 13 13 13 13 12 12 10 10 10 10 9 9 7 4 2 1 1 1 0 0 0 0 0
0 0 0 0 0 0 1 2 4 6 9 11 11 12 14 17 17 13 7 6 8 10 11 11 11 11 11 10 10 10 9 9 7 5 2 1 0 0 0 0 0 0 0 0
0 0 0 0 0 0 2 4 5 7 9 10 11 11 12 14 14 10 6 6 7 8 7 8 9 10 10 10 9 9 8 7 5 3 1 0 0 0 0 0 0 1 0 0
0 0 0 0 0 1 3 4 6 9 11 11 10 9 9 10 9 7 6 8 8 7 5 6 8 9 9 8 8 7 6 4 3 1 0 0 0 1 1 1 1 1 0 0
0 0 0 1 2 2 3 4 6 9 12 12 10 9 8 7 6 5 5 7 7 5 4 5 6 7 6 5 5 4 3 2 1 0 0 0 0 1 2 2 2 1 0 0
0 0 1 2 3 3 4 5 6 7 9 11 10 8 7 5 4 4 3 4 4 3 3 4 5 6 5 3 3 3 1 1 0 0 0 0 0 1 2 3 2 1 0 0
0 1 2 2 2 3 4 5 5 5 5 6 5 4 4 4 4 3 2 2 2 2 2 3 5 5 4 3 2 2 1 0 0 0 0 0 0 0 1 2 1 1 0 0
0 0 1 1 1 1 2 3 3 2 1 1 1 1 2 3 3 2 1 2 2 2 3 3 4 4 2 1 1 1 0 0 0 0 0 0 0 0 0 0 0 0 0 0
0 0 0 0 0 0 1 1 1 0 0 0 1 1 2 2 2 1 2 3 3 2 2 3 3 2 1 0 0 0 0 0 0 0 0 0 0 0 0 0 0 0 0 0
0 0 0 0 0 0 0 0 0 0 0 0 1 1 1 1 1 2 2 3 2 1 1 2 3 2 1 0 0 0 0 0 0 0 0 0 0 0 0 0 0 0 0 0
0 0 0 0 0 0 0 0 0 0 0 0 1 1 0 1 2 3 2 1 1 0 0 1 3 3 2 1 0 0 0 0 0 0 0 0 0 0 0 0 0 0 0 0
0 0 0 0 0 0 0 0 0 0 0 0 0 0 0 1 3 3 2 1 0 0 0 2 3 3 2 1 0 0 0 0 0 0 0 0 0 0 0 0 0 0 0 0
0 0 0 0 0 0 0 0 0 0 0 0 1 1 1 2 3 3 2 1 0 0 0 2 3 3 2 1 0 0 0 0 0 0 0 0 0 0 0 0 0 0 0 0
0 0 0 0 0 0 0 0 0 0 0 0 0 1 1 2 3 3 1 0 0 1 1 2 3 3 2 1 0 0 0 0 0 0 0 0 0 0 0 0 0 0 0 0
0 0 0 0 0 0 0 0 0 0 0 0 0 0 1 1 2 2 1 0 0 1 2 2 3 3 2 1 0 0 0 0 0 0 0 0 0 0 0 0 0 0 0 0
0 0 0 0 0 0 0 0 0 0 0 0 0 0 0 0 1 2 1 0 0 1 2 2 3 3 2 1 0 0 0 0 0 0 0 0 0 0 0 0 0 0 0 0
0 0 0 0 0 0 0 0 0 0 0 0 0 0 0 0 0 1 1 1 0 1 2 2 2 2 1 0 0 0 0 0 0 0 0 0 0 0 0 0 0 0 0 0
0 0 0 0 0 0 0 0 0 0 0 0 0 0 0 0 0 1 1 1 1 1 2 2 1 1 1 0 0 0 0 0 0 0 0 0 0 0 1 0 0 0 0 0
0 0 0 0 0 0 0 0 0 0 0 0 0 0 0 0 0 0 0 1 1 2 2 1 0 0 0 0 0 0 0 0 0 0 0 0 0 0 0 0 0 0 0 0
0 1 1 0 0 0 0 0 0 0 0 0 0 0 0 0 0 0 0 0 1 1 1 1 0 0 0 0 0 0 0 0 0 0 0 0 0 0 0 0 0 0 0 0
2 3 3 2 1 1 1 0 0 0 0 0 0 0 0 0 0 0 0 0 0 0 0 0 0 0 0 0 0 0 0 0 0 0 0 0 0 0 0 0 0 0 0 0
6 6 5 4 3 2 2 1 0 0 0 0 0 0 0 0 0 0 0 0 0 0 0 0 0 0 0 0 0 0 0 0 0 0 0 0 0 0 0 0 0 0 0 0
10 8 6 4 3 3 2 1 0 0 0 0 0 0 0 0 0 0 0 0 0 0 0 0 0 0 0 0 0 0 0 0 0 0 0 0 0 0 0 0 0 0 0 0
12 10 6 4 3 2 1 1 0 0 0 0 0 0 0 0 0 0 0 0 0 0 0 0 0 0 0 0 0 0 0 0 0 0 0 0 0 0 0 0 0 0 0 0
12 9 6 4 2 1 0 0 0 0 0 0 0 0 0 0 0 0 0 0 0 0 0 0 0 0 0 0 0 0 0 0 0 0 0 0 0 0 0 0 0 0 0 0
Wind_Speed
11 14 13 12 13 10 10 10 9 8 5 3 3 3 7 8 8 7 7 8 8 7 7 6 6 5 5 4 4 3 3 3 3 3 2 1 1 1 1 2 2 2 3 3
12 13 14 14 12 10 11 10 8 5 3 1 3 5 6 8 8 7 7 8 8 7 7 6 6 5 5 4 4 3 2 3 3 3 2 2 2 1 0 1 2 2 3 3
11 13 13 11 9 9 8 6 5 4 2 2 3 3 6 7 7 7 7 8 7 7 6 5 5 4 4 4 3 3 3 3 3 3 2 2 2 1 0 1 2 2 3 3
10 11 12 5 6 7 6 5 4 1 2 1 4 4 5 6 6 7 7 8 7 6 6 5 5 4 3 4 4 4 4 3 2 1 1 1 1 0 0 1 2 2 3 3
7 9 9 7 5 6 6 3 3 1 2 3 5 5 5 5 5 7 7 7 6 6 6 5 5 5 4 4 4 3 3 2 2 2 1 1 1 1 1 1 2 2 3 3
8 9 8 4 4 6 5 3 3 2 2 3 4 2 3 5 5 7 7 7 6 6 6 5 5 5 4 4 4 3 3 2 2 1 1 1 1 1 1 2 3 3 3 3
10 9 6 5 5 6 5 1 4 4 2 3 2 2 7 7 6 8 8 7 6 6 5 5 5 5 5 4 4 3 2 2 2 1 1 1 1 1 2 3 3 3 3 4
7 8 5 5 4 2 3 3 3 3 4 5 6 7 8 8 7 8 7 7 6 5 5 4 5 5 4 4 3 3 2 2 2 2 2 2 1 2 3 3 3 3 4 4
3 3 1 2 3 3 2 2 3 3 5 6 6 6 7 7 6 7 7 6 5 5 5 5 5 5 4 3 3 3 3 2 2 1 2 2 3 3 3 3 3 4 3 3
3 2 2 1 1 1 2 3 3 4 6 5 6 7 7 6 5 6 6 5 5 5 6 5 5 4 4 4 4 4 3 2 2 2 3 3 3 3 3 3 2 3 3 3
4 3 2 1 1 2 3 4 4 4 6 6 7 8 7 6 6 6 5 4 5 4 5 5 5 5 4 4 4 3 3 2 3 4 3 2 3 3 3 2 2 2 3 4
4 4 3 1 1 2 3 5 5 5 6 6 6 8 7 6 7 6 6 5 5 5 5 5 5 5 4 4 4 3 3 3 3 3 3 3 3 3 4 5 5 6 6 6
3 2 1 2 2 2 3 5 6 6 7 7 6 7 7 7 7 6 6 6 6 5 4 5 5 5 4 4 4 4 3 3 3 3 3 4 3 3 3 4 7 9 10 10
1 2 3 3 3 3 4 5 6 7 7 7 7 7 6 6 7 6 5 5 5 5 5 5 5 5 4 4 4 4 4 4 4 4 4 4 4 4 4 4 3 4 7 11
3 3 4 4 5 5 5 7 7 7 8 8 7 6 6 6 6 6 5 5 5 5 5 4 4 4 4 4 4 4 4 3 3 4 4 4 4 5 4 4 3 3 3 3
5 5 5 6 6 6 6 7 7 8 8 8 8 6 6 6 6 5 5 5 5 5 4 3 3 3 4 4 3 3 4 6 6 5 5 5 5 4 4 4 4 3 3 3
7 7 7 7 7 7 6 7 7 7 8 8 8 8 8 7 6 5 5 5 4 4 3 3 3 4 4 4 4 4 4 5 6 6 5 5 4 4 4 4 4 4 3 3
7 7 7 7 7 7 7 7 8 8 8 8 8 8 8 7 6 5 5 5 5 4 4 4 3 4 4 4 3 4 5 4 4 5 4 4 4 4 5 5 5 4 3 3
7 7 7 7 7 8 7 7 8 8 8 8 8 8 7 6 5 5 5 5 5 5 4 4 4 4 4 3 3 4 5 5 4 4 4 4 4 5 4 4 4 4 4 3
8 8 8 8 8 7 7 7 8 7 8 8 7 7 6 6 5 5 5 5 4 3 4 4 4 4 4 4 5 5 6 6 5 4 4 4 4 3 3 4 4 4 3 3
8 8 9 8 8 7 7 7 7 7 7 7 7 6 6 6 6 5 5 4 4 3 4 5 4 4 4 3 5 6 5 5 5 4 4 3 3 3 4 4 4 4 3 3
8 8 9 8 8 7 7 6 6 7 7 7 7 7 7 6 6 5 5 3 3 5 4 4 4 4 3 4 5 5 5 5 4 4 3 3 3 3 3 4 4 4 4 4
7 8 8 8 8 7 7 6 7 6 7 7 7 6 6 5 4 4 4 4 4 6 4 3 3 6 5 5 5 5 5 5 4 3 3 2 3 3 3 3 3 4 4 4
8 8 8 7 7 7 7 7 7 6 7 7 6 6 6 5 4 4 3 6 7 8 4 4 7 7 6 5 5 5 4 4 4 4 3 3 3 3 3 3 3 3 4 4
8 8 8 8 7 6 7 7 7 7 7 6 7 8 6 5 4 3 3 6 9 8 5 7 10 9 6 5 5 4 3 3 3 3 3 3 4 3 3 3 4 4 4 4
7 6 6 6 5 5 6 6 6 6 6 6 6 6 5 5 5 4 4 6 8 7 5 4 5 6 6 5 4 4 3 2 2 2 2 3 3 4 3 4 6 4 4 4
8 6 5 7 7 7 6 6 6 6 6 5 5 5 5 4 4 4 5 4 5 5 4 4 4 5 4 3 2 2 2 2 2 2 3 3 3 3 4 5 4 4 4 5
Wind_Direction
265 271 273 278 279 276 273 277 278 278 273 252 194 157 143 142 146 150 154 155 157 160 156 158 162 165 167 169 169 170 167 157 152 162 173 195 220 243 282 300 312 327 327 322
275 277 277 275 275 266 265 272 272 276 288 211 163 144 143 148 153 160 164 160 159 160 158 160 164 165 163 164 167 167 174 174 166 168 179 204 214 207 292 329 328 327 324 335
281 288 284 272 282 284 285 291 300 293 282 141 126 144 151 152 161 167 167 157 157 156 154 154 159 159 161 165 170 173 185 190 182 182 188 205 234 182 147 314 310 318 320 322
278 285 275 279 298 301 291 300 308 23 92 115 119 132 136 150 158 162 162 156 155 155 153 151 151 157 167 179 185 184 182 181 186 194 192 215 257 77 288 297 297 301 301 294
272 275 273 277 284 290 291 302 334 37 111 103 112 113 109 116 137 145 146 145 146 149 150 152 157 163 174 185 184 182 183 180 194 203 197 196 197 218 268 279 278 278 280 282
264 273 270 280 318 310 297 284 351 56 131 140 148 162 137 123 126 131 133 135 138 146 150 154 158 163 177 180 177 187 185 184 187 196 210 202 245 257 271 275 272 274 283 284
255 264 265 299 308 292 274 339 31 48 93 128 133 99 131 134 131 133 135 139 145 150 152 156 163 168 179 178 183 192 185 178 166 186 226 226 242 263 271 270 275 277 274 267
260 267 278 341 321 345 54 57 57 64 79 93 99 111 128 135 137 140 141 148 151 152 152 157 163 170 176 178 179 177 169 181 187 206 257 259 241 258 267 271 274 266 259 258
267 261 88 2 41 94 118 93 76 86 96 101 110 124 132 131 134 140 141 148 152 154 153 154 163 169 173 172 171 168 169 184 195 230 253 258 247 254 256 255 260 269 270 274
254 229 193 202 127 107 92 100 108 116 118 121 121 122 124 125 135 140 141 146 155 164 161 160 165 167 170 167 170 172 178 188 206 225 240 244 253 264 269 272 280 300 307 305
282 271 253 151 119 117 116 119 120 125 126 132 134 139 142 142 148 150 151 154 158 163 165 163 162 165 171 170 168 173 185 207 227 238 241 244 250 260 273 297 303 287 305 312
257 253 260 167 156 166 149 138 134 129 122 127 134 141 142 149 151 150 152 156 160 166 170 170 169 166 167 171 173 179 199 223 243 245 242 243 239 252 250 240 244 241 246 258
248 235 153 134 137 183 161 142 141 137 133 133 136 141 144 146 146 150 157 163 166 171 174 169 168 164 169 178 181 189 212 235 257 265 265 260 253 249 254 250 248 251 253 253
240 154 155 158 156 161 153 148 147 142 138 137 141 143 143 146 148 155 160 161 164 170 174 169 172 172 177 181 185 202 224 233 245 259 264 269 268 267 261 253 248 254 245 241
198 191 169 158 159 160 158 154 152 147 140 138 140 143 148 154 155 155 157 161 164 174 179 176 176 173 184 190 193 211 232 244 241 259 268 271 272 275 276 274 265 262 269 249
190 178 170 165 163 167 166 161 158 150 147 149 148 150 157 158 156 159 165 172 176 185 183 180 180 185 196 196 200 220 231 242 249 260 268 270 270 277 283 282 279 274 263 256
184 177 173 166 165 169 168 165 154 150 152 154 148 152 157 155 156 162 170 172 175 180 182 185 192 200 205 202 221 245 247 234 223 241 256 269 279 285 288 290 288 286 286 283
173 174 177 170 164 161 161 154 150 149 152 154 156 157 158 161 164 164 171 172 174 184 188 190 188 202 216 222 230 261 271 267 243 251 263 274 288 293 294 292 290 288 289 291
171 172 171 167 163 159 156 153 151 153 156 157 158 162 165 167 169 170 175 185 189 189 186 189 188 213 226 232 249 249 259 267 268 267 271 271 270 278 286 292 299 304 307 308
169 169 167 166 163 153 150 149 150 155 158 160 162 165 168 168 176 175 184 199 195 195 173 178 189 215 233 233 245 262 266 269 272 271 268 275 284 292 296 300 307 314 316 317
169 166 162 157 149 146 150 151 155 159 161 164 168 175 173 171 185 185 195 202 179 184 186 177 197 220 231 239 237 255 262 271 278 281 286 295 300 306 309 308 314 316 313 306
168 161 155 149 147 149 149 153 162 166 168 174 177 179 177 180 190 191 202 216 174 162 192 199 207 210 220 243 252 259 263 269 278 285 290 295 301 301 300 309 317 314 312 314
159 152 152 152 153 154 156 167 175 178 181 184 183 180 180 189 197 198 197 187 177 168 203 216 163 165 192 237 261 270 274 278 283 287 290 290 291 293 295 304 309 307 311 316
152 149 150 153 155 160 172 183 179 183 186 189 184 182 190 198 204 210 197 161 158 162 193 166 164 183 211 245 261 269 274 280 282 284 288 293 301 310 317 323 317 315 323 325
152 153 155 162 170 175 178 179 177 184 190 190 186 186 193 200 201 197 178 155 159 176 198 183 190 204 224 250 260 269 279 293 300 312 326 329 327 326 326 325 323 324 325 326
152 163 163 182 188 184 183 184 185 186 190 187 184 182 188 193 195 188 178 179 179 192 209 197 191 202 227 244 258 271 280 282 283 294 316 313 314 319 326 324 321 324 331 338
163 166 172 190 191 192 189 189 190 188 187 181 179 180 184 191 187 181 185 191 185 192 210 214 210 209 221 232 239 253 270 291 310 320 327 333 333 331 332 332 339 347 351 351